Location: Brno
(49.2000°N, 16.6330°E)
Time: 17:19:58
(UTC+02:00)

CARTOSAT-1 - Visible Passes

Search period start: 04 July 2015 00:00
Search period end: 14 July 2015 00:00
Orbit: 617 x 620 km, 97.9° (Epoch: 04 July)

Date Brightness Start Highest point End Pass type
(mag) Time Alt. Az. Time Alt. Az. Time Alt. Az.
04 Jul 3.6 22:28:27 14° SSE 22:32:13 85° ENE 22:36:35 10° NNW visible
05 Jul 6.1 00:07:23 10° WSW 00:09:01 12° W 00:10:27 10° WNW visible
05 Jul 3.8 22:45:28 15° S 22:49:02 66° WSW 22:53:22 10° NNW visible
06 Jul 4.4 23:02:28 14° SSW 23:05:53 45° W 23:10:04 10° NNW visible
07 Jul 4.7 21:42:53 10° SE 21:46:41 31° ENE 21:50:33 10° N visible
07 Jul 5.0 23:19:28 13° SSW 23:22:47 31° W 23:26:39 10° NNW visible
08 Jul 4.1 21:59:21 10° SE 22:03:25 44° ENE 22:07:33 10° N visible
08 Jul 5.5 23:36:29 11° SW 23:39:44 22° W 23:43:05 10° NW visible
09 Jul 3.7 22:16:21 13° SSE 22:20:09 65° ENE 22:24:28 10° N visible
09 Jul 6.0 23:54:06 10° SW 23:56:45 15° W 23:59:15 10° NW visible
10 Jul 3.6 22:33:22 15° SSE 22:36:56 87° W 22:41:17 10° NNW visible
11 Jul 6.2 00:12:56 10° W 00:13:49 10° W 00:14:27 10° WNW visible
11 Jul 3.9 22:50:23 16° S 22:53:45 59° W 22:58:03 10° NNW visible
12 Jul 5.0 21:31:12 10° ESE 21:34:41 25° ENE 21:38:15 10° N visible
12 Jul 4.6 23:07:23 15° SSW 23:10:37 40° W 23:14:43 10° NNW visible
13 Jul 4.5 21:47:28 10° SE 21:51:22 34° ENE 21:55:19 10° N visible
13 Jul 5.1 23:24:24 13° SSW 23:27:32 28° W 23:31:16 10° NW visible
